Time,TemperatureF,DewpointF,PressureIn,WindDirection,WindDirectionDegrees,WindSpeedMPH,WindSpeedGustMPH,Humidity,HourlyPrecipIn,Conditions,Clouds,dailyrainin,SoftwareType,DateUTC
2012-05-30 00:00:00,77.3,61.4,29.83,NE,34,0.0,0.0,58,0.00,,,0.00,VWS V13.01,2012-05-30 05:00:00,
2012-05-30 00:05:00,77.3,61.4,29.83,NE,34,0.0,0.0,58,0.00,,,0.00,VWS V13.01,2012-05-30 05:05:00,
2012-05-30 00:10:00,77.3,61.4,29.83,NE,34,0.0,0.0,58,0.00,,,0.00,VWS V13.01,2012-05-30 05:10:00,
2012-05-30 00:15:00,77.3,61.4,29.83,NE,34,0.0,0.0,58,0.00,,,0.00,VWS V13.01,2012-05-30 05:15:00,
2012-05-30 00:20:00,77.1,61.7,29.83,NE,34,0.0,0.0,59,0.00,,,0.00,VWS V13.01,2012-05-30 05:20:00,
2012-05-30 00:25:00,76.9,61.5,29.83,NNE,27,0.0,2.7,59,0.00,,,0.00,VWS V13.01,2012-05-30 05:25:00,
2012-05-30 00:30:00,76.8,61.8,29.83,NNE,27,0.0,0.0,60,0.00,,,0.00,VWS V13.01,2012-05-30 05:30:00,
2012-05-30 00:35:00,76.6,62.1,29.83,NNE,27,0.0,0.0,61,0.00,,,0.00,VWS V13.01,2012-05-30 05:35:00,
2012-05-30 00:40:00,76.2,62.7,29.83,NNE,27,0.0,0.0,63,0.00,,,0.00,VWS V13.01,2012-05-30 05:40:00,
2012-05-30 00:45:00,76.0,62.5,29.83,NNE,27,0.0,0.0,63,0.00,,,0.00,VWS V13.01,2012-05-30 05:45:00,
2012-05-30 00:50:00,76.0,62.5,29.83,NNE,17,0.0,0.0,63,0.00,,,0.00,VWS V13.01,2012-05-30 05:50:00,
2012-05-30 00:55:00,76.0,61.6,29.83,NNE,17,0.0,0.0,61,0.00,,,0.00,VWS V13.01,2012-05-30 05:55:00,
2012-05-30 01:00:00,76.2,61.8,29.83,NNE,17,0.0,0.0,61,0.00,,,0.00,VWS V13.01,2012-05-30 06:00:00,
2012-05-30 01:05:00,76.2,61.8,29.83,West,273,0.0,0.0,61,0.00,,,0.00,VWS V13.01,2012-05-30 06:05:00,
2012-05-30 01:10:00,76.0,60.2,29.83,West,263,5.4,6.3,58,0.00,,,0.00,VWS V13.01,2012-05-30 06:10:00,
2012-05-30 01:15:00,76.9,60.1,29.83,SW,228,4.0,4.0,56,0.00,,,0.00,VWS V13.01,2012-05-30 06:15:00,
2012-05-30 01:20:00,77.8,59.9,29.83,WSW,243,2.7,3.6,54,0.00,,,0.00,VWS V13.01,2012-05-30 06:20:00,
2012-05-30 01:25:00,78.4,59.8,29.83,South,183,2.7,2.7,53,0.00,,,0.00,VWS V13.01,2012-05-30 06:25:00,
2012-05-30 01:30:00,78.4,59.8,29.83,SSW,193,0.0,0.0,53,0.00,,,0.00,VWS V13.01,2012-05-30 06:30:00,
2012-05-30 01:35:00,78.4,59.3,29.83,WSW,250,0.0,0.0,52,0.00,,,0.00,VWS V13.01,2012-05-30 06:35:00,
2012-05-30 01:40:00,78.6,59.5,29.83,SW,228,0.0,0.0,52,0.00,,,0.00,VWS V13.01,2012-05-30 06:40:00,
2012-05-30 01:45:00,78.6,59.5,29.85,SSW,193,4.5,4.5,52,0.00,,,0.00,VWS V13.01,2012-05-30 06:45:00,
2012-05-30 01:50:00,78.6,59.5,29.85,SSE,156,8.1,8.3,52,0.00,,,0.00,VWS V13.01,2012-05-30 06:50:00,
2012-05-30 01:55:00,78.9,59.3,29.85,SW,228,5.4,6.3,51,0.00,,,0.00,VWS V13.01,2012-05-30 06:55:00,
2012-05-30 02:00:00,79.3,58.5,29.85,SW,234,8.7,8.7,49,0.00,,,0.00,VWS V13.01,2012-05-30 07:00:00,
2012-05-30 02:01:00,79.3,58.5,29.85,SW,225,10.1,10.1,49,0.00,,,0.00,VWS V13.01,2012-05-30 07:01:00,
2012-05-30 02:06:00,79.8,57.8,29.85,SSW,210,7.6,7.6,47,0.00,,,0.00,VWS V13.01,2012-05-30 07:06:00,
2012-05-30 02:11:00,79.8,57.2,29.85,West,269,12.8,14.1,46,0.00,,,0.00,VWS V13.01,2012-05-30 07:11:00,
2012-05-30 02:16:00,79.3,56.1,29.88,SW,236,10.1,13.2,45,0.00,,,0.00,VWS V13.01,2012-05-30 07:16:00,
2012-05-30 02:21:00,78.7,56.2,29.88,WSW,244,7.6,11.0,46,0.00,,,0.00,VWS V13.01,2012-05-30 07:21:00,
2012-05-30 02:26:00,78.4,55.9,29.88,SSW,204,6.3,6.3,46,0.00,,,0.00,VWS V13.01,2012-05-30 07:26:00,
2012-05-30 02:31:00,78.0,56.2,29.88,SW,227,5.4,8.1,47,0.00,,,0.00,VWS V13.01,2012-05-30 07:31:00,
2012-05-30 02:36:00,78.0,56.2,29.88,SW,227,5.8,8.1,47,0.00,,,0.00,VWS V13.01,2012-05-30 07:36:00,
2012-05-30 02:41:00,77.7,55.3,29.88,SW,232,7.6,13.2,46,0.00,,,0.00,VWS V13.01,2012-05-30 07:41:00,
2012-05-30 02:46:00,77.5,55.7,29.88,SW,231,5.8,6.3,47,0.00,,,0.00,VWS V13.01,2012-05-30 07:46:00,
2012-05-30 02:51:00,77.1,55.9,29.88,SW,227,5.4,5.8,48,0.00,,,0.00,VWS V13.01,2012-05-30 07:51:00,
2012-05-30 02:57:00,76.9,55.8,29.88,SSW,201,4.0,6.3,48,0.00,,,0.00,VWS V13.01,2012-05-30 07:57:00,
2012-05-30 03:02:00,76.8,56.2,29.85,SW,229,3.6,5.8,49,0.00,,,0.00,VWS V13.01,2012-05-30 08:02:00,
2012-05-30 03:07:00,76.4,55.8,29.85,SW,231,3.1,4.0,49,0.00,,,0.00,VWS V13.01,2012-05-30 08:07:00,
2012-05-30 03:12:00,76.2,56.2,29.85,South,189,3.1,3.6,50,0.00,,,0.00,VWS V13.01,2012-05-30 08:12:00,
2012-05-30 03:17:00,76.0,56.1,29.85,SSW,197,4.9,4.9,50,0.00,,,0.00,VWS V13.01,2012-05-30 08:17:00,
2012-05-30 03:21:00,75.9,55.9,29.85,SSW,197,3.1,4.9,50,0.00,,,0.00,VWS V13.01,2012-05-30 08:21:00,
2012-05-30 03:26:00,75.7,56.3,29.85,SSW,194,2.7,5.4,51,0.00,,,0.00,VWS V13.01,2012-05-30 08:26:00,
2012-05-30 03:31:00,75.5,56.1,29.85,WSW,240,3.6,3.6,51,0.00,,,0.00,VWS V13.01,2012-05-30 08:31:00,
2012-05-30 03:36:00,75.3,56.0,29.85,SSW,192,5.4,5.4,51,0.00,,,0.00,VWS V13.01,2012-05-30 08:36:00,
2012-05-30 03:41:00,75.3,56.5,29.85,South,184,3.1,3.1,52,0.00,,,0.00,VWS V13.01,2012-05-30 08:41:00,
2012-05-30 03:46:00,75.1,56.3,29.85,SSE,163,3.1,4.0,52,0.00,,,0.00,VWS V13.01,2012-05-30 08:46:00,
2012-05-30 03:51:00,75.1,56.3,29.85,SSE,147,0.0,0.0,52,0.00,,,0.00,VWS V13.01,2012-05-30 08:51:00,
2012-05-30 03:56:00,75.0,56.2,29.85,SW,227,0.0,0.0,52,0.00,,,0.00,VWS V13.01,2012-05-30 08:56:00,
2012-05-30 04:01:00,74.8,56.5,29.85,SSW,193,2.7,4.0,53,0.00,,,0.00,VWS V13.01,2012-05-30 09:01:00,
2012-05-30 04:06:00,74.6,56.4,29.85,WSW,243,0.0,0.0,53,0.00,,,0.00,VWS V13.01,2012-05-30 09:06:00,
2012-05-30 04:11:00,74.4,56.7,29.85,WSW,250,0.0,2.7,54,0.00,,,0.00,VWS V13.01,2012-05-30 09:11:00,
2012-05-30 04:16:00,74.4,56.7,29.85,South,179,0.0,0.0,54,0.00,,,0.00,VWS V13.01,2012-05-30 09:16:00,
2012-05-30 04:21:00,74.4,56.7,29.85,WSW,246,0.0,0.0,54,0.00,,,0.00,VWS V13.01,2012-05-30 09:21:00,
2012-05-30 04:26:00,74.4,56.7,29.85,WSW,250,0.0,0.0,54,0.00,,,0.00,VWS V13.01,2012-05-30 09:26:00,
2012-05-30 04:31:00,74.2,57.0,29.85,WSW,250,0.0,0.0,55,0.00,,,0.00,VWS V13.01,2012-05-30 09:31:00,
2012-05-30 04:36:00,74.1,57.4,29.85,WSW,250,0.0,0.0,56,0.00,,,0.00,VWS V13.01,2012-05-30 09:36:00,
2012-05-30 04:41:00,73.7,57.0,29.85,NNE,22,0.0,0.0,56,0.00,,,0.00,VWS V13.01,2012-05-30 09:41:00,
2012-05-30 04:46:00,73.5,56.9,29.85,NNW,327,0.0,0.0,56,0.00,,,0.00,VWS V13.01,2012-05-30 09:46:00,
2012-05-30 04:51:00,73.3,57.2,29.85,NNW,327,0.0,0.0,57,0.00,,,0.00,VWS V13.01,2012-05-30 09:51:00,
2012-05-30 04:56:00,73.2,57.0,29.85,NNW,327,0.0,0.0,57,0.00,,,0.00,VWS V13.01,2012-05-30 09:56:00,
2012-05-30 05:01:00,73.0,57.3,29.85,NNW,327,0.0,0.0,58,0.00,,,0.00,VWS V13.01,2012-05-30 10:01:00,
2012-05-30 05:06:00,72.8,58.1,29.85,NNW,327,0.0,0.0,60,0.00,,,0.00,VWS V13.01,2012-05-30 10:06:00,
2012-05-30 05:11:00,72.4,58.7,29.85,NE,54,0.0,0.0,62,0.00,,,0.00,VWS V13.01,2012-05-30 10:11:00,
2012-05-30 05:16:00,72.3,59.0,29.83,ENE,62,0.0,0.0,63,0.00,,,0.00,VWS V13.01,2012-05-30 10:16:00,
2012-05-30 05:21:00,72.1,58.4,29.83,NE,46,0.0,0.0,62,0.00,,,0.00,VWS V13.01,2012-05-30 10:21:00,
2012-05-30 05:26:00,71.9,59.1,29.83,NW,318,0.0,0.0,64,0.00,,,0.00,VWS V13.01,2012-05-30 10:26:00,
2012-05-30 05:31:00,72.1,58.8,29.83,West,263,0.0,0.0,63,0.00,,,0.00,VWS V13.01,2012-05-30 10:31:00,
2012-05-30 05:36:00,72.3,58.5,29.83,WNW,301,4.9,5.4,62,0.00,,,0.00,VWS V13.01,2012-05-30 10:36:00,
2012-05-30 05:41:00,72.4,58.7,29.83,WNW,282,3.1,3.1,62,0.00,,,0.00,VWS V13.01,2012-05-30 10:41:00,
2012-05-30 05:46:00,72.4,58.2,29.83,NW,317,2.7,3.1,61,0.00,,,0.00,VWS V13.01,2012-05-30 10:46:00,
2012-05-30 05:51:00,72.4,58.2,29.83,NNW,330,0.0,0.0,61,0.00,,,0.00,VWS V13.01,2012-05-30 10:51:00,
2012-05-30 05:56:00,72.3,57.6,29.83,NNE,16,3.1,4.0,60,0.00,,,0.00,VWS V13.01,2012-05-30 10:56:00,
2012-05-30 06:01:00,72.4,57.8,29.83,NNE,20,3.1,4.9,60,0.00,,,0.00,VWS V13.01,2012-05-30 11:01:00,
2012-05-30 06:06:00,72.4,57.8,29.83,NNE,27,5.4,5.4,60,0.00,,,0.00,VWS V13.01,2012-05-30 11:06:00,
2012-05-30 06:11:00,72.4,57.8,29.83,ENE,78,3.1,4.0,60,0.00,,,0.00,VWS V13.01,2012-05-30 11:11:00,
2012-05-30 06:16:00,72.4,57.8,29.83,ESE,108,3.1,3.6,60,0.00,,,0.00,VWS V13.01,2012-05-30 11:16:00,
2012-05-30 06:21:00,72.4,57.8,29.83,NNE,33,2.7,2.7,60,0.00,,,0.00,VWS V13.01,2012-05-30 11:21:00,
2012-05-30 06:26:00,72.4,57.8,29.83,North,357,0.0,0.0,60,0.00,,,0.00,VWS V13.01,2012-05-30 11:26:00,
2012-05-30 06:31:00,72.3,57.6,29.83,East,81,0.0,0.0,60,0.00,,,0.00,VWS V13.01,2012-05-30 11:31:00,
2012-05-30 06:36:00,72.4,57.8,29.83,NE,35,2.2,2.2,60,0.00,,,0.00,VWS V13.01,2012-05-30 11:36:00,
2012-05-30 06:41:00,72.4,57.8,29.83,NE,49,0.0,0.0,60,0.00,,,0.00,VWS V13.01,2012-05-30 11:41:00,
2012-05-30 06:46:00,72.6,57.5,29.85,SE,143,3.1,3.1,59,0.00,,,0.00,VWS V13.01,2012-05-30 11:46:00,
2012-05-30 06:51:00,72.8,57.7,29.85,South,189,3.6,5.8,59,0.00,,,0.00,VWS V13.01,2012-05-30 11:51:00,
2012-05-30 06:56:00,72.8,57.7,29.85,SE,143,4.0,4.9,59,0.00,,,0.00,VWS V13.01,2012-05-30 11:56:00,
2012-05-30 07:01:00,73.0,58.3,29.85,ESE,120,3.1,3.6,60,0.00,,,0.00,VWS V13.01,2012-05-30 12:01:00,
2012-05-30 07:06:00,73.0,57.3,29.85,ESE,116,2.7,3.1,58,0.00,,,0.00,VWS V13.01,2012-05-30 12:06:00,
2012-05-30 07:11:00,73.3,57.7,29.85,ESE,116,0.0,0.0,58,0.00,,,0.00,VWS V13.01,2012-05-30 12:11:00,
2012-05-30 07:16:00,73.5,58.3,29.85,WNW,295,0.0,0.0,59,0.00,,,0.00,VWS V13.01,2012-05-30 12:16:00,
2012-05-30 07:21:00,73.7,58.5,29.85,NNW,339,0.0,0.0,59,0.00,,,0.00,VWS V13.01,2012-05-30 12:21:00,
2012-05-30 07:26:00,73.9,57.7,29.85,NW,326,0.0,0.0,57,0.00,,,0.00,VWS V13.01,2012-05-30 12:26:00,
2012-05-30 07:31:00,74.1,58.4,29.85,NW,326,0.0,0.0,58,0.00,,,0.00,VWS V13.01,2012-05-30 12:31:00,
2012-05-30 07:36:00,74.2,58.5,29.85,South,171,0.0,0.0,58,0.00,,,0.00,VWS V13.01,2012-05-30 12:36:00,
2012-05-30 07:41:00,74.2,59.0,29.85,South,171,0.0,0.0,59,0.00,,,0.00,VWS V13.01,2012-05-30 12:41:00,
2012-05-30 07:46:00,74.1,58.8,29.88,South,169,3.6,3.6,59,0.00,,,0.00,VWS V13.01,2012-05-30 12:46:00,
2012-05-30 07:51:00,74.1,58.8,29.88,SSE,165,0.0,3.6,59,0.00,,,0.00,VWS V13.01,2012-05-30 12:51:00,
2012-05-30 07:56:00,74.2,59.5,29.88,SSW,209,0.0,0.0,60,0.00,,,0.00,VWS V13.01,2012-05-30 12:56:00,
2012-05-30 08:01:00,74.2,59.5,29.85,South,179,0.0,0.0,60,0.00,,,0.00,VWS V13.01,2012-05-30 13:01:00,
2012-05-30 08:06:00,74.6,59.8,29.85,ESE,120,0.0,0.0,60,0.00,,,0.00,VWS V13.01,2012-05-30 13:06:00,
2012-05-30 08:11:00,74.8,58.0,29.85,NNW,333,0.0,0.0,56,0.00,,,0.00,VWS V13.01,2012-05-30 13:11:00,
2012-05-30 08:16:00,75.3,57.0,29.85,East,97,3.6,3.6,53,0.00,,,0.00,VWS V13.01,2012-05-30 13:16:00,
2012-05-30 08:21:00,76.4,55.8,29.85,NW,304,5.4,5.4,49,0.00,,,0.00,VWS V13.01,2012-05-30 13:21:00,
2012-05-30 08:26:00,77.1,56.5,29.85,North,9,4.0,4.0,49,0.00,,,0.00,VWS V13.01,2012-05-30 13:26:00,
2012-05-30 08:31:00,77.5,56.3,29.85,ENE,75,2.2,2.7,48,0.00,,,0.00,VWS V13.01,2012-05-30 13:31:00,
2012-05-30 08:36:00,78.2,57.5,29.85,SE,125,2.2,2.7,49,0.00,,,0.00,VWS V13.01,2012-05-30 13:36:00,
2012-05-30 08:41:00,78.4,55.9,29.85,East,92,2.7,5.4,46,0.00,,,0.00,VWS V13.01,2012-05-30 13:41:00,
2012-05-30 08:46:00,78.7,56.2,29.85,NE,40,0.0,3.6,46,0.00,,,0.00,VWS V13.01,2012-05-30 13:46:00,
2012-05-30 08:51:00,79.1,56.0,29.85,NNW,335,3.6,3.6,45,0.00,,,0.00,VWS V13.01,2012-05-30 13:51:00,
2012-05-30 08:56:00,79.8,56.6,29.85,NE,48,0.0,2.7,45,0.00,,,0.00,VWS V13.01,2012-05-30 13:56:00,
2012-05-30 09:01:00,80.4,55.8,29.85,ESE,123,2.2,4.0,43,0.00,,,0.00,VWS V13.01,2012-05-30 14:01:00,
2012-05-30 09:06:00,80.9,56.3,29.85,NNE,31,3.1,3.6,43,0.00,,,0.00,VWS V13.01,2012-05-30 14:06:00,
2012-05-30 09:11:00,81.4,56.2,29.85,South,187,3.1,4.0,42,0.00,,,0.00,VWS V13.01,2012-05-30 14:11:00,
2012-05-30 09:16:00,81.6,56.3,29.85,NE,47,2.7,3.1,42,0.00,,,0.00,VWS V13.01,2012-05-30 14:16:00,
2012-05-30 09:21:00,81.8,55.8,29.85,NNW,327,4.0,5.4,41,0.00,,,0.00,VWS V13.01,2012-05-30 14:21:00,
2012-05-30 09:26:00,81.8,55.8,29.85,NW,312,3.6,3.6,41,0.00,,,0.00,VWS V13.01,2012-05-30 14:26:00,
2012-05-30 09:31:00,82.3,56.3,29.85,ENE,64,3.6,3.6,41,0.00,,,0.00,VWS V13.01,2012-05-30 14:31:00,
2012-05-30 09:36:00,82.5,56.5,29.85,NE,34,2.7,3.6,41,0.00,,,0.00,VWS V13.01,2012-05-30 14:36:00,
2012-05-30 09:41:00,82.7,56.0,29.85,NNE,13,5.4,6.3,40,0.00,,,0.00,VWS V13.01,2012-05-30 14:41:00,
2012-05-30 09:46:00,82.2,55.5,29.88,NNE,14,3.6,6.3,40,0.00,,,0.00,VWS V13.01,2012-05-30 14:46:00,
2012-05-30 09:51:00,82.7,56.0,29.88,NNE,14,0.0,3.1,40,0.00,,,0.00,VWS V13.01,2012-05-30 14:51:00,
2012-05-30 09:56:00,83.2,56.4,29.88,SE,143,0.0,0.0,40,0.00,,,0.00,VWS V13.01,2012-05-30 14:56:00,
2012-05-30 10:01:00,84.3,56.7,29.88,NNE,22,6.3,6.3,39,0.00,,,0.00,VWS V13.01,2012-05-30 15:01:00,
2012-05-30 10:06:00,84.3,56.7,29.88,NNE,33,0.0,0.0,39,0.00,,,0.00,VWS V13.01,2012-05-30 15:06:00,
2012-05-30 10:11:00,84.5,56.8,29.88,SE,143,2.7,2.7,39,0.00,,,0.00,VWS V13.01,2012-05-30 15:11:00,
2012-05-30 10:16:00,84.0,56.4,29.88,SSE,159,3.1,6.3,39,0.00,,,0.00,VWS V13.01,2012-05-30 15:16:00,
2012-05-30 10:21:00,84.0,57.1,29.88,ESE,105,3.6,3.6,40,0.00,,,0.00,VWS V13.01,2012-05-30 15:21:00,
2012-05-30 10:26:00,84.5,57.5,29.88,ESE,112,4.9,4.9,40,0.00,,,0.00,VWS V13.01,2012-05-30 15:26:00,
2012-05-30 10:31:00,84.3,56.7,29.88,East,95,2.2,4.0,39,0.00,,,0.00,VWS V13.01,2012-05-30 15:31:00,
2012-05-30 10:36:00,84.1,57.2,29.88,East,81,3.1,3.6,40,0.00,,,0.00,VWS V13.01,2012-05-30 15:36:00,
2012-05-30 10:41:00,83.8,56.2,29.88,NE,45,2.7,3.6,39,0.00,,,0.00,VWS V13.01,2012-05-30 15:41:00,
2012-05-30 10:46:00,83.8,56.9,29.88,East,99,4.0,4.0,40,0.00,,,0.00,VWS V13.01,2012-05-30 15:46:00,
2012-05-30 10:51:00,83.6,56.8,29.88,SE,127,4.0,4.0,40,0.00,,,0.00,VWS V13.01,2012-05-30 15:51:00,
2012-05-30 10:56:00,84.0,57.1,29.88,NNE,25,3.6,5.4,40,0.00,,,0.00,VWS V13.01,2012-05-30 15:56:00,
2012-05-30 11:01:00,84.7,57.7,29.88,East,83,4.9,4.9,40,0.00,,,0.00,VWS V13.01,2012-05-30 16:01:00,
2012-05-30 11:06:00,85.2,57.5,29.88,NNE,17,2.7,4.0,39,0.00,,,0.00,VWS V13.01,2012-05-30 16:06:00,
2012-05-30 11:11:00,85.0,58.0,29.88,North,359,4.0,4.5,40,0.00,,,0.00,VWS V13.01,2012-05-30 16:11:00,
2012-05-30 11:16:00,85.2,57.5,29.88,East,94,2.7,3.6,39,0.00,,,0.00,VWS V13.01,2012-05-30 16:16:00,
2012-05-30 11:21:00,85.8,58.0,29.88,ESE,121,4.9,6.3,39,0.00,,,0.00,VWS V13.01,2012-05-30 16:21:00,
2012-05-30 11:26:00,85.8,57.2,29.88,NE,48,3.1,3.6,38,0.00,,,0.00,VWS V13.01,2012-05-30 16:26:00,
2012-05-30 11:31:00,85.9,58.1,29.88,ENE,67,0.0,0.0,39,0.00,,,0.00,VWS V13.01,2012-05-30 16:31:00,
2012-05-30 11:36:00,86.8,58.9,29.88,North,6,2.7,3.1,39,0.00,,,0.00,VWS V13.01,2012-05-30 16:36:00,
2012-05-30 11:41:00,87.6,58.1,29.88,ESE,120,3.6,5.4,37,0.00,,,0.00,VWS V13.01,2012-05-30 16:41:00,
2012-05-30 11:46:00,87.7,57.5,29.85,NE,46,3.6,4.9,36,0.00,,,0.00,VWS V13.01,2012-05-30 16:46:00,
2012-05-30 11:51:00,87.9,57.7,29.85,ENE,58,5.4,5.8,36,0.00,,,0.00,VWS V13.01,2012-05-30 16:51:00,
2012-05-30 11:56:00,87.9,56.9,29.85,NNW,337,3.6,4.9,35,0.00,,,0.00,VWS V13.01,2012-05-30 16:56:00,
2012-05-30 12:01:00,87.7,57.5,29.85,NNE,33,4.0,5.4,36,0.00,,,0.00,VWS V13.01,2012-05-30 17:01:00,
2012-05-30 12:06:00,87.9,57.7,29.85,NE,56,0.0,2.7,36,0.00,,,0.00,VWS V13.01,2012-05-30 17:06:00,
2012-05-30 12:11:00,89.0,57.8,29.85,SE,143,8.1,8.7,35,0.00,,,0.00,VWS V13.01,2012-05-30 17:11:00,
2012-05-30 12:16:00,88.5,57.3,29.85,NE,34,0.0,4.0,35,0.00,,,0.00,VWS V13.01,2012-05-30 17:16:00,
2012-05-30 12:21:00,89.4,58.1,29.85,NE,41,3.6,4.9,35,0.00,,,0.00,VWS V13.01,2012-05-30 17:21:00,
2012-05-30 12:26:00,89.9,57.8,29.85,SE,126,0.0,4.0,34,0.00,,,0.00,VWS V13.01,2012-05-30 17:26:00,
2012-05-30 12:31:00,89.9,57.0,29.85,West,270,0.0,2.2,33,0.00,,,0.00,VWS V13.01,2012-05-30 17:31:00,
2012-05-30 12:36:00,89.5,57.5,29.85,SW,223,3.6,3.6,34,0.00,,,0.00,VWS V13.01,2012-05-30 17:36:00,
2012-05-30 12:41:00,89.4,57.3,29.85,SSE,163,2.2,4.0,34,0.00,,,0.00,VWS V13.01,2012-05-30 17:41:00,
2012-05-30 12:46:00,90.3,58.1,29.83,East,98,6.3,6.3,34,0.00,,,0.00,VWS V13.01,2012-05-30 17:46:00,
2012-05-30 12:52:00,90.8,57.8,29.83,East,100,4.0,6.3,33,0.00,,,0.00,VWS V13.01,2012-05-30 17:52:00,
2012-05-30 12:57:00,90.3,56.4,29.83,West,281,0.0,4.9,32,0.00,,,0.00,VWS V13.01,2012-05-30 17:57:00,
2012-05-30 13:01:00,90.4,58.3,29.83,SSE,147,3.6,4.5,34,0.00,,,0.00,VWS V13.01,2012-05-30 18:01:00,
2012-05-30 13:06:00,90.6,58.4,29.83,South,170,4.0,4.5,34,0.00,,,0.00,VWS V13.01,2012-05-30 18:06:00,
2012-05-30 13:11:00,91.3,56.5,29.83,ENE,62,3.1,6.3,31,0.00,,,0.00,VWS V13.01,2012-05-30 18:11:00,
2012-05-30 13:16:00,91.3,56.5,29.83,SSE,150,2.7,3.6,31,0.00,,,0.00,VWS V13.01,2012-05-30 18:16:00,
2012-05-30 13:19:00,91.3,56.5,29.83,SE,128,3.1,3.1,31,0.00,,,0.00,VWS V13.01,2012-05-30 18:19:00,
2012-05-30 13:24:00,91.3,56.5,29.83,ESE,116,3.6,3.6,31,0.00,,,0.00,VWS V13.01,2012-05-30 18:24:00,
2012-05-30 13:29:00,91.5,56.7,29.83,South,185,8.1,8.1,31,0.00,,,0.00,VWS V13.01,2012-05-30 18:29:00,
2012-05-30 13:34:00,91.5,55.7,29.83,SE,127,4.0,5.8,30,0.00,,,0.00,VWS V13.01,2012-05-30 18:34:00,
2012-05-30 13:38:00,91.3,56.5,29.83,SSW,200,5.8,5.8,31,0.00,,,0.00,VWS V13.01,2012-05-30 18:38:00,
2012-05-30 13:43:00,91.3,55.6,29.83,ESE,103,2.2,7.6,30,0.00,,,0.00,VWS V13.01,2012-05-30 18:43:00,
2012-05-30 13:48:00,91.5,55.7,29.83,ENE,72,4.0,4.0,30,0.00,,,0.00,VWS V13.01,2012-05-30 18:48:00,
2012-05-30 13:53:00,92.1,57.1,29.83,ESE,116,3.6,6.3,31,0.00,,,0.00,VWS V13.01,2012-05-30 18:53:00,
2012-05-30 13:58:00,92.6,56.7,29.83,ESE,115,2.7,4.0,30,0.00,,,0.00,VWS V13.01,2012-05-30 18:58:00,
2012-05-30 14:03:00,92.6,54.8,29.83,SE,139,4.0,6.3,28,0.00,,,0.00,VWS V13.01,2012-05-30 19:03:00,
2012-05-30 14:08:00,92.2,55.4,29.83,ENE,74,4.0,5.4,29,0.00,,,0.00,VWS V13.01,2012-05-30 19:08:00,
2012-05-30 14:13:00,92.4,55.6,29.83,SE,127,3.1,6.3,29,0.00,,,0.00,VWS V13.01,2012-05-30 19:13:00,
2012-05-30 14:18:00,93.0,55.1,29.83,North,3,3.6,4.9,28,0.00,,,0.00,VWS V13.01,2012-05-30 19:18:00,
2012-05-30 14:23:00,93.5,55.5,29.83,ENE,68,3.6,3.6,28,0.00,,,0.00,VWS V13.01,2012-05-30 19:23:00,
2012-05-30 14:28:00,93.5,55.5,29.83,South,170,2.2,3.6,28,0.00,,,0.00,VWS V13.01,2012-05-30 19:28:00,
2012-05-30 14:34:00,93.0,55.1,29.80,NE,49,2.2,4.0,28,0.00,,,0.00,VWS V13.01,2012-05-30 19:34:00,
2012-05-30 14:39:00,93.3,55.4,29.80,NNE,15,0.0,2.7,28,0.00,,,0.00,VWS V13.01,2012-05-30 19:39:00,
2012-05-30 14:44:00,94.2,56.2,29.80,ENE,61,2.7,4.0,28,0.00,,,0.00,VWS V13.01,2012-05-30 19:44:00,
2012-05-30 14:49:00,94.4,55.3,29.80,SE,133,2.7,2.7,27,0.00,,,0.00,VWS V13.01,2012-05-30 19:49:00,
2012-05-30 14:54:00,94.2,56.2,29.80,SSW,200,3.1,3.1,28,0.00,,,0.00,VWS V13.01,2012-05-30 19:54:00,
2012-05-30 14:59:00,93.9,55.8,29.80,South,172,3.6,3.6,28,0.00,,,0.00,VWS V13.01,2012-05-30 19:59:00,
2012-05-30 15:04:00,94.4,55.3,29.80,ESE,104,3.6,4.9,27,0.00,,,0.00,VWS V13.01,2012-05-30 20:04:00,
2012-05-30 15:08:00,94.8,55.6,29.80,SE,131,5.8,5.8,27,0.00,,,0.00,VWS V13.01,2012-05-30 20:08:00,
2012-05-30 15:13:00,95.1,55.9,29.80,West,272,2.7,5.8,27,0.00,,,0.00,VWS V13.01,2012-05-30 20:13:00,
2012-05-30 15:18:00,95.1,55.9,29.80,SE,126,5.8,5.8,27,0.00,,,0.00,VWS V13.01,2012-05-30 20:18:00,
2012-05-30 15:23:00,94.2,56.2,29.80,SSE,159,2.7,2.7,28,0.00,,,0.00,VWS V13.01,2012-05-30 20:23:00,
2012-05-30 15:29:00,94.6,55.5,29.80,SSW,196,4.9,6.3,27,0.00,,,0.00,VWS V13.01,2012-05-30 20:29:00,
2012-05-30 15:34:00,94.6,55.5,29.80,West,261,5.4,6.3,27,0.00,,,0.00,VWS V13.01,2012-05-30 20:34:00,
2012-05-30 15:39:00,94.0,56.0,29.80,SSW,208,3.6,3.6,28,0.00,,,0.00,VWS V13.01,2012-05-30 20:39:00,
2012-05-30 15:44:00,94.0,56.0,29.80,SE,143,5.8,5.8,28,0.00,,,0.00,VWS V13.01,2012-05-30 20:44:00,
2012-05-30 15:49:00,93.5,55.5,29.80,SSE,167,5.4,8.1,28,0.00,,,0.00,VWS V13.01,2012-05-30 20:49:00,
2012-05-30 15:54:00,93.1,55.2,29.80,South,172,4.9,8.1,28,0.00,,,0.00,VWS V13.01,2012-05-30 20:54:00,
2012-05-30 15:59:00,93.1,55.2,29.80,SSW,198,4.5,4.5,28,0.00,,,0.00,VWS V13.01,2012-05-30 20:59:00,
2012-05-30 16:04:00,93.3,55.4,29.80,SSE,147,3.1,3.1,28,0.00,,,0.00,VWS V13.01,2012-05-30 21:04:00,
2012-05-30 16:09:00,93.5,55.5,29.80,SSE,168,5.8,8.3,28,0.00,,,0.00,VWS V13.01,2012-05-30 21:09:00,
2012-05-30 16:14:00,93.9,55.8,29.80,West,260,3.1,3.1,28,0.00,,,0.00,VWS V13.01,2012-05-30 21:14:00,
2012-05-30 16:19:00,94.6,56.5,29.77,ESE,122,3.6,3.6,28,0.00,,,0.00,VWS V13.01,2012-05-30 21:19:00,
2012-05-30 16:24:00,94.2,56.2,29.77,SSE,150,2.7,2.7,28,0.00,,,0.00,VWS V13.01,2012-05-30 21:24:00,
2012-05-30 16:29:00,94.4,56.3,29.77,SSW,201,5.8,5.8,28,0.00,,,0.00,VWS V13.01,2012-05-30 21:29:00,
2012-05-30 16:34:00,94.6,55.5,29.77,East,86,3.1,3.1,27,0.00,,,0.00,VWS V13.01,2012-05-30 21:34:00,
2012-05-30 16:39:00,94.4,55.3,29.77,ESE,106,4.0,4.0,27,0.00,,,0.00,VWS V13.01,2012-05-30 21:39:00,
2012-05-30 16:44:00,94.4,55.3,29.77,South,178,3.6,3.6,27,0.00,,,0.00,VWS V13.01,2012-05-30 21:44:00,
2012-05-30 16:49:00,94.9,56.8,29.74,SSE,150,5.8,5.8,28,0.00,,,0.00,VWS V13.01,2012-05-30 21:49:00,
2012-05-30 16:54:00,94.9,55.8,29.74,ESE,123,0.0,2.2,27,0.00,,,0.00,VWS V13.01,2012-05-30 21:54:00,
2012-05-30 16:59:00,94.8,55.6,29.77,SSE,163,4.9,4.9,27,0.00,,,0.00,VWS V13.01,2012-05-30 21:59:00,
2012-05-30 17:04:00,94.4,55.3,29.77,East,87,4.0,5.8,27,0.00,,,0.00,VWS V13.01,2012-05-30 22:04:00,
2012-05-30 17:07:00,94.6,55.5,29.77,East,84,8.7,8.7,27,0.00,,,0.00,VWS V13.01,2012-05-30 22:07:00,
2012-05-30 17:12:00,94.2,56.2,29.77,SSE,147,4.0,5.8,28,0.00,,,0.00,VWS V13.01,2012-05-30 22:12:00,
2012-05-30 17:17:00,94.4,55.3,29.77,East,87,3.6,5.4,27,0.00,,,0.00,VWS V13.01,2012-05-30 22:17:00,
2012-05-30 17:22:00,94.0,56.0,29.77,East,84,5.4,5.4,28,0.00,,,0.00,VWS V13.01,2012-05-30 22:22:00,
2012-05-30 17:27:00,94.0,56.0,29.77,East,100,4.0,5.8,28,0.00,,,0.00,VWS V13.01,2012-05-30 22:27:00,
2012-05-30 17:32:00,93.9,55.8,29.74,SE,133,3.6,5.4,28,0.00,,,0.00,VWS V13.01,2012-05-30 22:32:00,
2012-05-30 17:37:00,93.7,55.7,29.74,ESE,105,3.6,5.4,28,0.00,,,0.00,VWS V13.01,2012-05-30 22:37:00,
2012-05-30 17:42:00,93.9,55.8,29.74,East,98,4.0,4.9,28,0.00,,,0.00,VWS V13.01,2012-05-30 22:42:00,
2012-05-30 17:47:00,93.7,55.7,29.74,East,80,3.6,3.6,28,0.00,,,0.00,VWS V13.01,2012-05-30 22:47:00,
2012-05-30 17:52:00,93.9,55.8,29.74,East,82,5.4,5.4,28,0.00,,,0.00,VWS V13.01,2012-05-30 22:52:00,
2012-05-30 17:57:00,93.7,55.7,29.74,East,94,3.1,3.6,28,0.00,,,0.00,VWS V13.01,2012-05-30 22:57:00,
2012-05-30 18:02:00,93.9,55.8,29.74,SSE,150,2.7,4.0,28,0.00,,,0.00,VWS V13.01,2012-05-30 23:02:00,
2012-05-30 18:07:00,93.9,55.8,29.74,East,85,4.0,5.8,28,0.00,,,0.00,VWS V13.01,2012-05-30 23:07:00,
2012-05-30 18:12:00,93.5,55.5,29.74,SSE,150,3.6,4.0,28,0.00,,,0.00,VWS V13.01,2012-05-30 23:12:00,
2012-05-30 18:17:00,93.1,55.2,29.74,East,94,5.8,5.8,28,0.00,,,0.00,VWS V13.01,2012-05-30 23:17:00,
2012-05-30 18:22:00,93.3,55.4,29.74,East,98,3.1,3.6,28,0.00,,,0.00,VWS V13.01,2012-05-30 23:22:00,
2012-05-30 18:27:00,93.1,55.2,29.74,ESE,106,7.6,7.6,28,0.00,,,0.00,VWS V13.01,2012-05-30 23:27:00,
2012-05-30 18:32:00,93.0,55.1,29.74,South,177,5.8,5.8,28,0.00,,,0.00,VWS V13.01,2012-05-30 23:32:00,
2012-05-30 18:37:00,93.0,55.1,29.74,ESE,119,3.1,5.8,28,0.00,,,0.00,VWS V13.01,2012-05-30 23:37:00,
2012-05-30 18:42:00,92.6,54.8,29.74,ESE,104,5.4,6.3,28,0.00,,,0.00,VWS V13.01,2012-05-30 23:42:00,
2012-05-30 18:47:00,92.6,54.8,29.74,ESE,107,3.6,4.0,28,0.00,,,0.00,VWS V13.01,2012-05-30 23:47:00,
2012-05-30 18:52:00,92.4,54.6,29.74,ESE,102,5.4,5.4,28,0.00,,,0.00,VWS V13.01,2012-05-30 23:52:00,
2012-05-30 18:57:00,92.2,54.5,29.74,NE,49,3.1,4.0,28,0.00,,,0.00,VWS V13.01,2012-05-30 23:57:00,
2012-05-30 19:02:00,92.2,54.5,29.71,East,85,2.2,2.7,28,0.00,,,0.00,VWS V13.01,2012-05-31 00:02:00,
2012-05-30 19:07:00,92.1,54.3,29.71,ENE,71,4.0,4.0,28,0.00,,,0.00,VWS V13.01,2012-05-31 00:07:00,
2012-05-30 19:12:00,91.9,54.2,29.71,SE,138,4.9,4.9,28,0.00,,,0.00,VWS V13.01,2012-05-31 00:12:00,
2012-05-30 19:17:00,91.7,54.0,29.71,ESE,116,5.8,5.8,28,0.00,,,0.00,VWS V13.01,2012-05-31 00:17:00,
2012-05-30 19:22:00,91.5,54.8,29.71,East,100,5.8,5.8,29,0.00,,,0.00,VWS V13.01,2012-05-31 00:22:00,
2012-05-30 19:27:00,91.3,54.7,29.71,ENE,73,4.0,4.9,29,0.00,,,0.00,VWS V13.01,2012-05-31 00:27:00,
2012-05-30 19:32:00,90.4,55.7,29.71,ENE,68,4.9,6.3,31,0.00,,,0.00,VWS V13.01,2012-05-31 00:32:00,
2012-05-30 19:37:00,89.7,56.8,29.71,ENE,78,8.3,9.2,33,0.00,,,0.00,VWS V13.01,2012-05-31 00:37:00,
2012-05-30 19:42:00,89.2,57.2,29.71,East,85,8.7,8.7,34,0.00,,,0.00,VWS V13.01,2012-05-31 00:42:00,
2012-05-30 19:47:00,88.8,58.5,29.71,ESE,121,6.3,7.6,36,0.00,,,0.00,VWS V13.01,2012-05-31 00:47:00,
2012-05-30 19:52:00,88.3,59.5,29.71,ENE,69,3.6,5.8,38,0.00,,,0.00,VWS V13.01,2012-05-31 00:52:00,
2012-05-30 19:57:00,87.9,59.9,29.71,ENE,77,3.1,4.0,39,0.00,,,0.00,VWS V13.01,2012-05-31 00:57:00,
2012-05-30 20:02:00,87.6,59.6,29.74,NE,40,5.8,8.3,39,0.00,,,0.00,VWS V13.01,2012-05-31 01:02:00,
2012-05-30 20:07:00,87.2,59.2,29.74,East,79,6.7,6.7,39,0.00,,,0.00,VWS V13.01,2012-05-31 01:07:00,
2012-05-30 20:12:00,86.8,59.6,29.74,NE,55,8.3,8.3,40,0.00,,,0.00,VWS V13.01,2012-05-31 01:12:00,
2012-05-30 20:17:00,86.3,59.2,29.74,East,88,3.1,3.6,40,0.00,,,0.00,VWS V13.01,2012-05-31 01:17:00,
2012-05-30 20:22:00,86.1,59.0,29.74,North,350,2.2,5.8,40,0.00,,,0.00,VWS V13.01,2012-05-31 01:22:00,
2012-05-30 20:27:00,85.8,58.7,29.74,ESE,116,5.8,5.8,40,0.00,,,0.00,VWS V13.01,2012-05-31 01:27:00,
2012-05-30 20:32:00,85.6,59.2,29.74,SE,134,3.1,5.8,41,0.00,,,0.00,VWS V13.01,2012-05-31 01:32:00,
2012-05-30 20:37:00,85.2,58.9,29.74,East,91,7.6,8.3,41,0.00,,,0.00,VWS V13.01,2012-05-31 01:37:00,
2012-05-30 20:42:00,84.9,59.2,29.74,East,79,5.8,5.8,42,0.00,,,0.00,VWS V13.01,2012-05-31 01:42:00,
2012-05-30 20:47:00,84.5,58.9,29.74,ENE,64,0.0,2.7,42,0.00,,,0.00,VWS V13.01,2012-05-31 01:47:00,
2012-05-30 20:52:00,84.3,58.8,29.74,ESE,105,3.1,3.1,42,0.00,,,0.00,VWS V13.01,2012-05-31 01:52:00,
2012-05-30 20:57:00,84.0,59.1,29.74,NE,56,4.0,4.0,43,0.00,,,0.00,VWS V13.01,2012-05-31 01:57:00,
2012-05-30 21:02:00,83.8,58.9,29.77,ENE,69,3.6,4.9,43,0.00,,,0.00,VWS V13.01,2012-05-31 02:02:00,
2012-05-30 21:07:00,83.6,58.8,29.77,ESE,122,3.6,9.6,43,0.00,,,0.00,VWS V13.01,2012-05-31 02:07:00,
2012-05-30 21:12:00,83.4,58.6,29.77,NE,34,3.6,5.4,43,0.00,,,0.00,VWS V13.01,2012-05-31 02:12:00,
2012-05-30 21:17:00,83.2,58.4,29.77,East,100,5.4,5.4,43,0.00,,,0.00,VWS V13.01,2012-05-31 02:17:00,
2012-05-30 21:22:00,83.1,58.3,29.77,East,90,5.8,5.8,43,0.00,,,0.00,VWS V13.01,2012-05-31 02:22:00,
2012-05-30 21:27:00,82.7,58.0,29.77,NE,37,4.0,4.0,43,0.00,,,0.00,VWS V13.01,2012-05-31 02:27:00,
2012-05-30 21:32:00,82.3,57.6,29.77,ESE,123,3.1,4.9,43,0.00,,,0.00,VWS V13.01,2012-05-31 02:32:00,
2012-05-30 21:37:00,82.2,58.1,29.77,ENE,61,4.9,4.9,44,0.00,,,0.00,VWS V13.01,2012-05-31 02:37:00,
2012-05-30 21:42:00,82.0,57.9,29.77,ESE,116,3.1,3.1,44,0.00,,,0.00,VWS V13.01,2012-05-31 02:42:00,
2012-05-30 21:47:00,81.6,58.2,29.77,East,94,3.6,6.3,45,0.00,,,0.00,VWS V13.01,2012-05-31 02:47:00,
2012-05-30 21:52:00,81.4,58.1,29.77,SSE,147,3.6,5.8,45,0.00,,,0.00,VWS V13.01,2012-05-31 02:52:00,
2012-05-30 21:57:00,81.3,58.5,29.77,ENE,62,2.7,3.6,46,0.00,,,0.00,VWS V13.01,2012-05-31 02:57:00,
2012-05-30 22:02:00,81.1,58.4,29.77,NNE,26,2.7,2.7,46,0.00,,,0.00,VWS V13.01,2012-05-31 03:02:00,
2012-05-30 22:07:00,80.7,58.6,29.77,ENE,63,3.6,3.6,47,0.00,,,0.00,VWS V13.01,2012-05-31 03:07:00,
2012-05-30 22:12:00,80.5,58.5,29.77,NE,48,3.6,3.6,47,0.00,,,0.00,VWS V13.01,2012-05-31 03:12:00,
2012-05-30 22:17:00,80.4,58.9,29.77,NE,54,3.1,6.3,48,0.00,,,0.00,VWS V13.01,2012-05-31 03:17:00,
2012-05-30 22:22:00,80.2,58.7,29.77,NE,56,3.1,3.1,48,0.00,,,0.00,VWS V13.01,2012-05-31 03:22:00,
2012-05-30 22:27:00,80.0,59.1,29.77,NNE,27,2.2,3.1,49,0.00,,,0.00,VWS V13.01,2012-05-31 03:27:00,
2012-05-30 22:32:00,79.8,59.0,29.77,SSE,156,0.0,0.0,49,0.00,,,0.00,VWS V13.01,2012-05-31 03:32:00,
2012-05-30 22:37:00,79.6,59.9,29.77,NNE,17,0.0,0.0,51,0.00,,,0.00,VWS V13.01,2012-05-31 03:37:00,
2012-05-30 22:42:00,79.6,59.9,29.77,North,7,3.6,3.6,51,0.00,,,0.00,VWS V13.01,2012-05-31 03:42:00,
2012-05-30 22:47:00,79.5,59.8,29.80,ENE,63,4.0,4.0,51,0.00,,,0.00,VWS V13.01,2012-05-31 03:47:00,
2012-05-30 22:52:00,79.3,59.6,29.80,NE,49,2.7,3.1,51,0.00,,,0.00,VWS V13.01,2012-05-31 03:52:00,
2012-05-30 22:57:00,79.3,60.2,29.80,NE,39,3.6,3.6,52,0.00,,,0.00,VWS V13.01,2012-05-31 03:57:00,
2012-05-30 23:00:00,79.1,60.0,29.80,NE,49,4.0,4.0,52,0.00,,,0.00,VWS V13.01,2012-05-31 04:00:00,
2012-05-30 23:05:00,78.9,59.8,29.80,NE,50,3.6,5.8,52,0.00,,,0.00,VWS V13.01,2012-05-31 04:05:00,
2012-05-30 23:10:00,78.9,59.8,29.80,NE,54,3.6,4.0,52,0.00,,,0.00,VWS V13.01,2012-05-31 04:10:00,
2012-05-30 23:11:00,78.9,59.8,29.80,SE,134,3.6,4.0,52,0.00,,,0.00,VWS V13.01,2012-05-31 04:11:00,
2012-05-30 23:16:00,78.7,60.2,29.80,NE,40,3.6,4.0,53,0.00,,,0.00,VWS V13.01,2012-05-31 04:16:00,
2012-05-30 23:21:00,78.6,60.0,29.80,ENE,77,5.8,5.8,53,0.00,,,0.00,VWS V13.01,2012-05-31 04:21:00,
2012-05-30 23:26:00,78.4,59.8,29.80,ESE,116,3.1,3.1,53,0.00,,,0.00,VWS V13.01,2012-05-31 04:26:00,
2012-05-30 23:31:00,78.4,59.8,29.80,ENE,66,3.1,3.1,53,0.00,,,0.00,VWS V13.01,2012-05-31 04:31:00,
2012-05-30 23:36:00,78.4,60.4,29.80,NW,304,0.0,2.7,54,0.00,,,0.00,VWS V13.01,2012-05-31 04:36:00,
2012-05-30 23:41:00,78.2,60.2,29.80,ENE,68,0.0,0.0,54,0.00,,,0.00,VWS V13.01,2012-05-31 04:41:00,
2012-05-30 23:46:00,78.0,60.6,29.80,ENE,62,4.0,4.0,55,0.00,,,0.00,VWS V13.01,2012-05-31 04:46:00,
2012-05-30 23:51:00,77.8,60.4,29.80,East,84,3.1,3.1,55,0.00,,,0.00,VWS V13.01,2012-05-31 04:51:00,
2012-05-30 23:56:00,77.7,60.2,29.80,East,81,4.0,4.0,55,0.00,,,0.00,VWS V13.01,2012-05-31 04:56:00,